Rbgn^[z[y[W
メイン
   新天体発見情報
     Comet C/2022 U3 (Bok)
投稿するにはまず登録を

スレッド表示 | 新しいものから 前のトピック | 次のトピック | 下へ
投稿者 スレッド
佐藤裕久
投稿日時: 2022-11-14 0:23
モデレータ
登録日: 2005-6-12
居住地: 日本
投稿: 2661
オンライン
Comet C/2022 U3 (Bok)

Hannes GroellerとCassandra Lejoly (アリゾナ大学)の通報によると、10月31日、Kitt Peakに
あるBok 2.25-m 反射望遠鏡で得た"Bok NEO サーベイ" (CBET 5103 参照)によるモザイクCCD画
像から彗星を発見した。
30秒4枚の画像では、集光した6"のコマとp.a. 約230°に約6"の尾が見えた。
小惑星センターのPCCP webpageに公表後、佐藤英貴氏(東京都文京区,11月1.2日UT, 120-秒露
出10枚のスタック, 0.43-m f/6.8 アストログラフ, Mayhill近郊, ニューメキシコ州, 米国, 
遠隔操作:強く集光した8"の外側のコマが見え、p.a. 270°に向かって10"の尾が見えた。5".7の
円形範囲で測定した光度は19.0等であった)らCCD観測者によって彗星状と観測された。

彗星機能の報告は次のとおり、

OC   Date        Reporter           Coma    Tail    PA          Exposures
G96  2022-10-19  D. Rankin         8"
H06  2022-11-01  H. Sato           8"       10"    270          10x120s
204  2022-11-01  A. Aletti         5"
G00  2022-11-02  M. Jaeger         6"                           25x120s

発見位置は次のとおり、

     2022 UT             R.A. (2000) Decl.       Mag.   Observer
     Oct. 31.26146    1 46 07.27   +45 19 34.3   19.6   Groeller
          31.26645    1 46 07.08   +45 19 33.3   19.9     "
          31.27142    1 46 06.94   +45 19 32.3   19.8     "
          31.27638    1 46 06.80   +45 19 31.4   19.9     "

MPCの双曲線軌道要素、位置推算表は次のとおり、

Orbital elements:
    C/2022 U3 (Bok)                                                             
Epoch 2022 Aug. 9.0 TT = JDT 2459800.5                                          
T 2024 July 27.72770 TT                                 Rudenko                 
q   4.8311625            (2000.0)            P               Q                  
z  -0.0005147      Peri.  188.93711     -0.17765497     -0.81401049             
 +/-0.0000299      Node   272.81100     +0.93364666     +0.03819492             
e   1.0024866      Incl.   33.61993     +0.31103476     -0.57959301             
From 74 observations 2021 June 23-2022 Nov. 2, mean residual 0".4.              
                                                                                
Ephemeris:
Date    TT    R. A. (2000) Decl.     Delta      r    Elong.  Phase   m1
2022 10 05    01 57 40.6 +46 08 56   6.2038  6.9499   135.3     5.8  19.9
...
2022 10 20    01 51 15.6 +45 50 07   6.0413  6.8736   144.2     4.9  19.8
...
2022 10 28    01 47 36.1 +45 29 49   5.9770  6.8332   147.1     4.5  19.7
...
2022 11 03    01 44 53.8 +45 10 07   5.9398  6.8030   148.2     4.4  19.7
2022 11 04    01 44 27.3 +45 06 30   5.9345  6.7979   148.2     4.4  19.7
2022 11 05    01 44 01.1 +45 02 46   5.9295  6.7929   148.3     4.4  19.7
...
2022 11 11    01 41 29.5 +44 38 29   5.9051  6.7628   147.7     4.5  19.7
...
2022 11 19    01 38 28.0 +44 01 33   5.8874  6.7228   145.2     4.8  19.6
...
2022 12 04    01 34 19.8 +42 42 10   5.8986  6.6483   136.5     5.9  19.6

(MPEC 2022-V83、CBET 5188)

スレッド表示 | 新しいものから 前のトピック | 次のトピック | トップ

投稿するにはまず登録を
 
© 1999 Tsutomu Seki.